TIME,�g�[�{�C���[-���� [L],�t���O,�����{�C���[-���� [L],�t���O,�g�[�{�C���[-���� [MJ/h],�t���O,�����{�C���[-���� [MJ/h],�t���O
2003/7/1 0:00,0,0,0,0,0,0,0,0
2003/7/1 0:15,0,0,0,0,0,0,0,0
2003/7/1 0:30,0,0,0,0,0,0,0,0
2003/7/1 0:45,0,0,0,0,0,0,0,0
2003/7/1 1:00,0,0,0,0,0,0,0,0
2003/7/1 1:15,0,0,0,0,0,0,0,0
2003/7/1 1:30,0,0,0,0,0,0,0,0
2003/7/1 1:45,0,0,0,0,0,0,0,0
2003/7/1 2:00,0,0,0,0,0,0,0,0
2003/7/1 2:15,0,0,0,0,0,0,0,0
2003/7/1 2:30,0,0,0,0,0,0,0,0
2003/7/1 2:45,0,0,0,0,0,0,0,0
2003/7/1 3:00,0,0,0,0,0,0,0,0
2003/7/1 3:15,0,0,0,0,0,0,0,0
2003/7/1 3:30,0,0,0,0,0,0,0,0
2003/7/1 3:45,0,0,0,0,0,0,0,0
2003/7/1 4:00,0,0,0,0,0,0,0,0
2003/7/1 4:15,0,0,0,0,0,0,0,0
2003/7/1 4:30,0,0,0,0,0,0,0,0
2003/7/1 4:45,0,0,0,0,0,0,0,0
2003/7/1 5:00,0,0,0,0,0,0,0,0
2003/7/1 5:15,0,0,0,0,0,0,0,0
2003/7/1 5:30,0,0,0,0,0,0,0,0
2003/7/1 5:45,0,0,0.011108992,0,0,0,1.6308,0
2003/7/1 6:00,0,0,0,0,0,0,0,0
2003/7/1 6:15,0,0,0,0,0,0,0,0
2003/7/1 6:30,0,0,0,0,0,0,0,0
2003/7/1 6:45,0,0,0,0,0,0,0,0
2003/7/1 7:00,0,0,0.201411008,0,0,0,29.567136,0
2003/7/1 7:15,0,0,0,0,0,0,0,0
2003/7/1 7:30,0,0,0.007727984,0,0,0,1.134468,0
2003/7/1 7:45,0,0,0,0,0,0,0,0
2003/7/1 8:00,0,0,0,0,0,0,0,0
2003/7/1 8:15,0,0,0,0,0,0,0,0
2003/7/1 8:30,0,0,0.087262071,0,0,0,12.810072,0
2003/7/1 8:45,0,0,0.040249946,0,0,0,5.908692,0
2003/7/1 9:00,0,0,0,0,0,0,0,0
2003/7/1 9:15,0,0,0,0,0,0,0,0
2003/7/1 9:30,0,0,0.004991035,0,0,0,0.732684,0
2003/7/1 9:45,0,0,0,0,0,0,0,0
2003/7/1 10:00,0,0,0,0,0,0,0,0
2003/7/1 10:15,0,0,0,0,0,0,0,0
2003/7/1 10:30,0,0,0.044436049,0,0,0,6.523212,0
2003/7/1 10:45,0,0,0.010626049,0,0,0,1.559904,0
2003/7/1 11:00,0,0,0.058443025,0,0,0,8.579436,0
2003/7/1 11:15,0,0,0,0,0,0,0,0
2003/7/1 11:30,0,0,0,0,0,0,0,0
2003/7/1 11:45,0,0,0,0,0,0,0,0
2003/7/1 12:00,0,0,0,0,0,0,0,0
2003/7/1 12:15,0,0,0,0,0,0,0,0
2003/7/1 12:30,0,0,0,0,0,0,0,0
2003/7/1 12:45,0,0,0.012557984,0,0,0,1.843512,0
2003/7/1 13:00,0,0,0.000321989,0,0,0,0.047268,0
2003/7/1 13:15,0,0,0.027691962,0,0,0,4.06518,0
2003/7/1 13:30,0,0,0.042181962,0,0,0,6.192312,0
2003/7/1 13:45,0,0,0,0,0,0,0,0
2003/7/1 14:00,0,0,0,0,0,0,0,0
2003/7/1 14:15,0,0,0,0,0,0,0,0
2003/7/1 14:30,0,0,0,0,0,0,0,0
2003/7/1 14:45,0,0,0,0,0,0,0,0
2003/7/1 15:00,0,0,0,0,0,0,0,0
2003/7/1 15:15,0,0,0,0,0,0,0,0
2003/7/1 15:30,0,0,0,0,0,0,0,0
2003/7/1 15:45,0,0,0,0,0,0,0,0
2003/7/1 16:00,0,0,0,0,0,0,0,0
2003/7/1 16:15,0,0,0,0,0,0,0,0
2003/7/1 16:30,0,0,0,0,0,0,0,0
2003/7/1 16:45,0,0,0,0,0,0,0,0
2003/7/1 17:00,0,0,0.004186022,0,0,0,0.614508,0
2003/7/1 17:15,0,0,0,0,0,0,0,0
2003/7/1 17:30,0,0,0,0,0,0,0,0
2003/7/1 17:45,0,0,0,0,0,0,0,0
2003/7/1 18:00,0,0,0,0,0,0,0,0
2003/7/1 18:15,0,0,0,0,0,0,0,0
2003/7/1 18:30,0,0,0,0,0,0,0,0
2003/7/1 18:45,0,0,0,0,0,0,0,0
2003/7/1 19:00,0,0,0,0,0,0,0,0
2003/7/1 19:15,0,0,0.02898,0,0,0,4.254264,0
2003/7/1 19:30,0,0,0.016744005,0,0,0,2.45802,0
2003/7/1 19:45,0,0,0.230874033,0,0,0,33.892308,0
2003/7/1 20:00,0,0,0.539671962,0,0,0,79.223844,0
2003/7/1 20:15,0,0,0.094667984,0,0,0,13.89726,0
2003/7/1 20:30,0,0,0.139426022,0,0,0,20.46774,0
2003/7/1 20:45,0,0,0,0,0,0,0,0
2003/7/1 21:00,0,0,0,0,0,0,0,0
2003/7/1 21:15,0,0,0,0,0,0,0,0
2003/7/1 21:30,0,0,0.189336049,0,0,0,27.794532,0
2003/7/1 21:45,0,0,0,0,0,0,0,0
2003/7/1 22:00,0,0,0,0,0,0,0,0
2003/7/1 22:15,0,0,0,0,0,0,0,0
2003/7/1 22:30,0,0,0.097887956,0,0,0,14.369952,0
2003/7/1 22:45,0,0,0.043148011,0,0,0,6.334128,0
2003/7/1 23:00,0,0,0.182412997,0,0,0,26.778228,0
2003/7/1 23:15,0,0,0,0,0,0,0,0
2003/7/1 23:30,0,0,0,0,0,0,0,0
2003/7/1 23:45,0,0,0,0,0,0,0,0
2003/7/2 0:00,0,0,0,0,0,0,0,0
2003/7/2 0:15,0,0,0,0,0,0,0,0
2003/7/2 0:30,0,0,0,0,0,0,0,0
2003/7/2 0:45,0,0,0,0,0,0,0,0
2003/7/2 1:00,0,0,0,0,0,0,0,0
2003/7/2 1:15,0,0,0,0,0,0,0,0
2003/7/2 1:30,0,0,0,0,0,0,0,0
2003/7/2 1:45,0,0,0,0,0,0,0,0
2003/7/2 2:00,0,0,0,0,0,0,0,0
2003/7/2 2:15,0,0,0,0,0,0,0,0
2003/7/2 2:30,0,0,0,0,0,0,0,0
2003/7/2 2:45,0,0,0,0,0,0,0,0
2003/7/2 3:00,0,0,0,0,0,0,0,0
2003/7/2 3:15,0,0,0,0,0,0,0,0
2003/7/2 3:30,0,0,0,0,0,0,0,0
2003/7/2 3:45,0,0,0,0,0,0,0,0
2003/7/2 4:00,0,0,0,0,0,0,0,0
2003/7/2 4:15,0,0,0,0,0,0,0,0
2003/7/2 4:30,0,0,0,0,0,0,0,0
2003/7/2 4:45,0,0,0,0,0,0,0,0
2003/7/2 5:00,0,0,0,0,0,0,0,0
2003/7/2 5:15,0,0,0,0,0,0,0,0
2003/7/2 5:30,0,0,0,0,0,0,0,0
2003/7/2 5:45,0,0,0,0,0,0,0,0
2003/7/2 6:00,0,0,0,0,0,0,0,0
2003/7/2 6:15,0,0,0,0,0,0,0,0
2003/7/2 6:30,0,0,0,0,0,0,0,0
2003/7/2 6:45,0,0,0.012557984,0,0,0,1.843512,0
2003/7/2 7:00,0,0,0,0,0,0,0,0
2003/7/2 7:15,0,0,0.106743025,0,0,0,15.669876,0
2003/7/2 7:30,0,0,0.161966076,0,0,0,23.77662,0
2003/7/2 7:45,0,0,0.005796049,0,0,0,0.85086,0
2003/7/2 8:00,0,0,0,0,0,0,0,0
2003/7/2 8:15,0,0,0.060053052,0,0,0,8.815788,0
2003/7/2 8:30,0,0,0.04556297,0,0,0,6.688644,0
2003/7/2 8:45,0,0,0.047656022,0,0,0,6.995904,0
2003/7/2 9:00,0,0,0,0,0,0,0,0
2003/7/2 9:15,0,0,0,0,0,0,0,0
2003/7/2 9:30,0,0,0,0,0,0,0,0
2003/7/2 9:45,0,0,0,0,0,0,0,0
2003/7/2 10:00,0,0,0,0,0,0,0,0
2003/7/2 10:15,0,0,0,0,0,0,0,0
2003/7/2 10:30,0,0,0,0,0,0,0,0
2003/7/2 10:45,0,0,0,0,0,0,0,0
2003/7/2 11:00,0,0,0,0,0,0,0,0
2003/7/2 11:15,0,0,0,0,0,0,0,0
2003/7/2 11:30,0,0,0,0,0,0,0,0
2003/7/2 11:45,0,0,0,0,0,0,0,0
2003/7/2 12:00,0,0,0,0,0,0,0,0
2003/7/2 12:15,0,0,0,0,0,0,0,0
2003/7/2 12:30,0,0,0,0,0,0,0,0
2003/7/2 12:45,0,0,0,0,0,0,0,0
2003/7/2 13:00,0,0,0,0,0,0,0,0
2003/7/2 13:15,0,0,0.109157984,0,0,0,16.024392,0
2003/7/2 13:30,0,0,0,0,0,0,0,0
2003/7/2 13:45,0,0,0.010948038,0,0,0,1.607172,0
2003/7/2 14:00,0,0,0,0,0,0,0,0
2003/7/2 14:15,0,0,0,0,0,0,0,0
2003/7/2 14:30,0,0,0,0,0,0,0,0
2003/7/2 14:45,0,0,0,0,0,0,0,0
2003/7/2 15:00,0,0,0,0,0,0,0,0
2003/7/2 15:15,0,0,0,0,0,0,0,0
2003/7/2 15:30,0,0,0,0,0,0,0,0
2003/7/2 15:45,0,0,0,0,0,0,0,0
2003/7/2 16:00,0,0,0,0,0,0,0,0
2003/7/2 16:15,0,0,0,0,0,0,0,0
2003/7/2 16:30,0,0,0,0,0,0,0,0
2003/7/2 16:45,0,0,0,0,0,0,0,0
2003/7/2 17:00,0,0,0,0,0,0,0,0
2003/7/2 17:15,0,0,0.021895995,0,0,0,3.214332,0
2003/7/2 17:30,0,0,0,0,0,0,0,0
2003/7/2 17:45,0,0,0,0,0,0,0,0
2003/7/2 18:00,0,0,0,0,0,0,0,0
2003/7/2 18:15,0,0,0,0,0,0,0,0
2003/7/2 18:30,0,0,0,0,0,0,0,0
2003/7/2 18:45,0,0,0,0,0,0,0,0
2003/7/2 19:00,0,0,0.013201962,0,0,0,1.938048,0
2003/7/2 19:15,0,0,0.037191008,0,0,0,5.45964,0
2003/7/2 19:30,0,0,0.554322997,0,0,0,81.374616,0
2003/7/2 19:45,0,0,0.262590981,0,0,0,38.548356,0
2003/7/2 20:00,0,0,0.064560981,0,0,0,9.477552,0
2003/7/2 20:15,0,0,0.159550954,0,0,0,23.42208,0
2003/7/2 20:30,0,0,0.009176975,0,0,0,1.34718,0
2003/7/2 20:45,0,0,0.033166022,0,0,0,4.868772,0
2003/7/2 21:00,0,0,0.127190027,0,0,0,18.671496,0
2003/7/2 21:15,0,0,1.61E-04,0,0,0,0.02364,0
2003/7/2 21:30,0,0,0,0,0,0,0,0
2003/7/2 21:45,0,0,0.225078065,0,0,0,33.04146,0
2003/7/2 22:00,0,0,0,0,0,0,0,0
2003/7/2 22:15,0,0,0.020447003,0,0,0,3.00162,0
2003/7/2 22:30,0,0,0,0,0,0,0,0
2003/7/2 22:45,0,0,0.101913025,0,0,0,14.960832,0
2003/7/2 23:00,0,0,0.234899019,0,0,0,34.483176,0
2003/7/2 23:15,0,0,0,0,0,0,0,0
2003/7/2 23:30,0,0,0,0,0,0,0,0
2003/7/2 23:45,0,0,0,0,0,0,0,0
2003/7/3 0:00,0,0,0,0,0,0,0,0
2003/7/3 0:15,0,0,0,0,0,0,0,0
2003/7/3 0:30,0,0,0,0,0,0,0,0
2003/7/3 0:45,0,0,0,0,0,0,0,0
2003/7/3 1:00,0,0,0,0,0,0,0,0
2003/7/3 1:15,0,0,0,0,0,0,0,0
2003/7/3 1:30,0,0,0,0,0,0,0,0
2003/7/3 1:45,0,0,0,0,0,0,0,0
2003/7/3 2:00,0,0,0,0,0,0,0,0
2003/7/3 2:15,0,0,0,0,0,0,0,0
2003/7/3 2:30,0,0,0,0,0,0,0,0
2003/7/3 2:45,0,0,0,0,0,0,0,0
2003/7/3 3:00,0,0,0,0,0,0,0,0
2003/7/3 3:15,0,0,0,0,0,0,0,0
2003/7/3 3:30,0,0,0,0,0,0,0,0
2003/7/3 3:45,0,0,0,0,0,0,0,0
2003/7/3 4:00,0,0,0,0,0,0,0,0
2003/7/3 4:15,0,0,0,0,0,0,0,0
2003/7/3 4:30,0,0,0,0,0,0,0,0
2003/7/3 4:45,0,0,0,0,0,0,0,0
2003/7/3 5:00,0,0,0,0,0,0,0,0
2003/7/3 5:15,0,0,0,0,0,0,0,0
2003/7/3 5:30,0,0,0,0,0,0,0,0
2003/7/3 5:45,0,0,0,0,0,0,0,0
2003/7/3 6:00,0,0,0,0,0,0,0,0
2003/7/3 6:15,0,0,0,0,0,0,0,0
2003/7/3 6:30,0,0,0,0,0,0,0,0
2003/7/3 6:45,0,0,0.021895995,0,0,0,3.214332,0
2003/7/3 7:00,0,0,0.236831035,0,0,0,34.766796,0
2003/7/3 7:15,0,0,0,0,0,0,0,0
2003/7/3 7:30,0,0,0,0,0,0,0,0
2003/7/3 7:45,0,0,0.06005297,0,0,0,8.815776,0
2003/7/3 8:00,0,0,0.126868038,0,0,0,18.624228,0
2003/7/3 8:15,0,0,0.0483,0,0,0,7.09044,0
2003/7/3 8:30,0,0,0.035420027,0,0,0,5.19966,0
2003/7/3 8:45,0,0,0.01722703,0,0,0,2.528928,0
2003/7/3 9:00,0,0,0,0,0,0,0,0
2003/7/3 9:15,0,0,0,0,0,0,0,0
2003/7/3 9:30,0,0,0,0,0,0,0,0
2003/7/3 9:45,0,0,0,0,0,0,0,0
2003/7/3 10:00,0,0,0,0,0,0,0,0
2003/7/3 10:15,0,0,0,0,0,0,0,0
2003/7/3 10:30,0,0,0,0,0,0,0,0
2003/7/3 10:45,0,0,0,0,0,0,0,0
2003/7/3 11:00,0,0,0,0,0,0,0,0
2003/7/3 11:15,0,0,0,0,0,0,0,0
2003/7/3 11:30,0,0,0,0,0,0,0,0
2003/7/3 11:45,0,0,0,0,0,0,0,0
2003/7/3 12:00,0,0,0,0,0,0,0,0
2003/7/3 12:15,0,0,0,0,0,0,0,0
2003/7/3 12:30,0,0,0,0,0,0,0,0
2003/7/3 12:45,0,0,0,0,0,0,0,0
2003/7/3 13:00,0,0,0,0,0,0,0,0
2003/7/3 13:15,0,0,0,0,0,0,0,0
2003/7/3 13:30,0,0,0.006278992,0,0,0,0.921756,0
2003/7/3 13:45,0,0,0.000321989,0,0,0,0.047268,0
2003/7/3 14:00,0,0,0,0,0,0,0,0
2003/7/3 14:15,0,0,0,0,0,0,0,0
2003/7/3 14:30,0,0,0,0,0,0,0,0
2003/7/3 14:45,0,0,0,0,0,0,0,0
2003/7/3 15:00,0,0,0,0,0,0,0,0
2003/7/3 15:15,0,0,0,0,0,0,0,0
2003/7/3 15:30,0,0,0,0,0,0,0,0
2003/7/3 15:45,0,0,0,0,0,0,0,0
2003/7/3 16:00,0,0,0,0,0,0,0,0
2003/7/3 16:15,0,0,0,0,0,0,0,0
2003/7/3 16:30,0,0,0,0,0,0,0,0
2003/7/3 16:45,0,0,0,0,0,0,0,0
2003/7/3 17:00,0,0,0,0,0,0,0,0
2003/7/3 17:15,0,0,0,0,0,0,0,0
2003/7/3 17:30,0,0,0,0,0,0,0,0
2003/7/3 17:45,0,0,0,0,0,0,0,0
2003/7/3 18:00,0,0,0,0,0,0,0,0
2003/7/3 18:15,0,0,0,0,0,0,0,0
2003/7/3 18:30,0,0,0,0,0,0,0,0
2003/7/3 18:45,0,0,0.012557984,0,0,0,1.843512,0
2003/7/3 19:00,0,0,0,0,0,0,0,0
2003/7/3 19:15,0,0,0,0,0,0,0,0
2003/7/3 19:30,0,0,0,0,0,0,0,0
2003/7/3 19:45,0,0,0,0,0,0,0,0
2003/7/3 20:00,0,0,0,0,0,0,0,0
2003/7/3 20:15,0,0,0,0,0,0,0,0
2003/7/3 20:30,0,0,0,0,0,0,0,0
2003/7/3 20:45,0,0,0,0,0,0,0,0
2003/7/3 21:00,0,0,0,0,0,0,0,0
2003/7/3 21:15,0,0,0,0,0,0,0,0
2003/7/3 21:30,0,0,0,0,0,0,0,0
2003/7/3 21:45,0,0,0,0,0,0,0,0
2003/7/3 22:00,0,0,0.061179973,0,0,0,8.98122,0
2003/7/3 22:15,0,0,0.174685014,0,0,0,25.64376,0
2003/7/3 22:30,0,0,0.199478992,0,0,0,29.283516,0
2003/7/3 22:45,0,0,0,0,0,0,0,0
2003/7/3 23:00,0,0,0.245202997,0,0,0,35.9958,0
2003/7/3 23:15,0,0,0,0,0,0,0,0
2003/7/3 23:30,0,0,0,0,0,0,0,0
2003/7/3 23:45,0,0,0,0,0,0,0,0
2003/7/4 0:00,0,0,0,0,0,0,0,0
2003/7/4 0:15,0,0,0.02415,0,0,0,3.54522,0
2003/7/4 0:30,0,0,0,0,0,0,0,0
2003/7/4 0:45,0,0,0,0,0,0,0,0
2003/7/4 1:00,0,0,0,0,0,0,0,0
2003/7/4 1:15,0,0,0,0,0,0,0,0
2003/7/4 1:30,0,0,0,0,0,0,0,0
2003/7/4 1:45,0,0,0,0,0,0,0,0
2003/7/4 2:00,0,0,0,0,0,0,0,0
2003/7/4 2:15,0,0,0,0,0,0,0,0
2003/7/4 2:30,0,0,0,0,0,0,0,0
2003/7/4 2:45,0,0,0,0,0,0,0,0
2003/7/4 3:00,0,0,0,0,0,0,0,0
2003/7/4 3:15,0,0,0,0,0,0,0,0
2003/7/4 3:30,0,0,0,0,0,0,0,0
2003/7/4 3:45,0,0,0,0,0,0,0,0
2003/7/4 4:00,0,0,0,0,0,0,0,0
2003/7/4 4:15,0,0,0,0,0,0,0,0
2003/7/4 4:30,0,0,0,0,0,0,0,0
2003/7/4 4:45,0,0,0,0,0,0,0,0
2003/7/4 5:00,0,0,0,0,0,0,0,0
2003/7/4 5:15,0,0,0,0,0,0,0,0
2003/7/4 5:30,0,0,0,0,0,0,0,0
2003/7/4 5:45,0,0,0,0,0,0,0,0
2003/7/4 6:00,0,0,0,0,0,0,0,0
2003/7/4 6:15,0,0,0,0,0,0,0,0
2003/7/4 6:30,0,0,0,0,0,0,0,0
2003/7/4 6:45,0,0,0,0,0,0,0,0
2003/7/4 7:00,0,0,0,0,0,0,0,0
2003/7/4 7:15,0,0,0.237475014,0,0,0,34.861332,0
2003/7/4 7:30,0,0,0,0,0,0,0,0
2003/7/4 7:45,0,0,0,0,0,0,0,0
2003/7/4 8:00,0,0,0,0,0,0,0,0
2003/7/4 8:15,0,0,0,0,0,0,0,0
2003/7/4 8:30,0,0,0,0,0,0,0,0
2003/7/4 8:45,0,0,0,0,0,0,0,0
2003/7/4 9:00,0,0,0,0,0,0,0,0
2003/7/4 9:15,0,0,0.219926076,0,0,0,32.285148,0
2003/7/4 9:30,0,0,0.083398038,0,0,0,12.242832,0
2003/7/4 9:45,0,0,0,0,0,0,0,0
2003/7/4 10:00,0,0,0,0,0,0,0,0
2003/7/4 10:15,0,0,0,0,0,0,0,0
2003/7/4 10:30,0,0,0,0,0,0,0,0
2003/7/4 10:45,0,0,0,0,0,0,0,0
2003/7/4 11:00,0,0,0,0,0,0,0,0
2003/7/4 11:15,0,0,0,0,0,0,0,0
2003/7/4 11:30,0.019963978,0,0,0,2.930712,0,0,0
2003/7/4 11:45,0.128799973,0,0,0,18.907836,0,0,0
2003/7/4 12:00,0.095312044,0,0,0,13.991808,0,0,0
2003/7/4 12:15,0.087744932,0,0,0,12.880956,0,0,0
2003/7/4 12:30,0.050875995,0,0,0,7.468596,0,0,0
2003/7/4 12:45,0.040894005,0,0,0,6.00324,0,0,0
2003/7/4 13:00,0.049105014,0,0.012879973,0,7.208616,0,1.89078,0
2003/7/4 13:15,0.050553924,0,0,0,7.421316,0,0,0
2003/7/4 13:30,0.029946049,0,0,0,4.39608,0,0,0
2003/7/4 13:45,0.039767003,0,0,0,5.837796,0,0,0
2003/7/4 14:00,0.039605967,0,0,0,5.814156,0,0,0
2003/7/4 14:15,0.047011962,0,0.011914005,0,6.901356,0,1.748976,0
2003/7/4 14:30,0.054257003,0,0.000965967,0,7.964928,0,0.141804,0
2003/7/4 14:45,0.014006975,0,0,0,2.056224,0,0,0
2003/7/4 15:00,0.034292943,0,0,0,5.034204,0,0,0
2003/7/4 15:15,0.04137703,0,0,0,6.074148,0,0,0
2003/7/4 15:30,0.040411063,0,0,0,5.932344,0,0,0
2003/7/4 15:45,0.045079946,0,0,0,6.617736,0,0,0
2003/7/4 16:00,0.01932,0,0,0,2.836176,0,0,0
2003/7/4 16:15,0.020930027,0,0,0,3.072528,0,0,0
2003/7/4 16:30,0.041054959,0,0,0,6.026868,0,0,0
2003/7/4 16:45,0.043792071,0,0,0,6.428676,0,0,0
2003/7/4 17:00,0.018354033,0,0,0,2.694372,0,0,0
2003/7/4 17:15,0.047494986,0,0,0,6.972264,0,0,0
2003/7/4 17:30,0.036225041,0,0,0,5.317836,0,0,0
2003/7/4 17:45,0.035258992,0,0,0,5.17602,0,0,0
2003/7/4 18:00,0.010465014,0,0,0,1.536264,0,0,0
2003/7/4 18:15,0.063595014,0,0,0,9.335748,0,0,0
2003/7/4 18:30,0,0,0,0,0,0,0,0
2003/7/4 18:45,0.055705995,0,0,0,8.17764,0,0,0
2003/7/4 19:00,0,0,0,0,0,0,0,0
2003/7/4 19:15,0.056832997,0,0,0,8.343084,0,0,0
2003/7/4 19:30,0,0,0,0,0,0,0,0
2003/7/4 19:45,0.023184033,0,0,0,3.403416,0,0,0
2003/7/4 20:00,0.038479046,0,0.002575995,0,5.648724,0,0.378156,0
2003/7/4 20:15,0,0,0,0,0,0,0,0
2003/7/4 20:30,0.065687984,0,0,0,9.642996,0,0,0
2003/7/4 20:45,0.007727984,0,0,0,1.134468,0,0,0
2003/7/4 21:00,0.031395041,0,0,0,4.608792,0,0,0
2003/7/4 21:15,0.071484033,0,0,0,10.493856,0,0,0
2003/7/4 21:30,0.058603978,0,0,0,8.603064,0,0,0
2003/7/4 21:45,0.018998011,0,0,0,2.788908,0,0,0
2003/7/4 22:00,0.065688065,0,0,0,9.643008,0,0,0
2003/7/4 22:15,0.03171703,0,0,0,4.65606,0,0,0
2003/7/4 22:30,0,0,0,0,0,0,0,0
2003/7/4 22:45,0.085330054,0,0,0,12.526452,0,0,0
2003/7/4 23:00,0,0,0,0,0,0,0,0
2003/7/4 23:15,0.050714959,0,0,0,7.444956,0,0,0
2003/7/4 23:30,0.005473978,0,0,0,0.80358,0,0,0
2003/7/4 23:45,0.061984986,0,0,0,9.099396,0,0,0
2003/7/5 0:00,0.008532997,0,0.013523951,0,1.252644,0,1.985316,0
2003/7/5 0:15,0.017871008,0,0,0,2.623464,0,0,0
2003/7/5 0:30,0.061179973,0,0,0,8.98122,0,0,0
2003/7/5 0:45,0.02898,0,0,0,4.254264,0,0,0
2003/7/5 1:00,0,0,0,0,0,0,0,0
2003/7/5 1:15,0.032521962,0,0,0,4.774224,0,0,0
2003/7/5 1:30,0,0,0,0,0,0,0,0
2003/7/5 1:45,0.023022997,0,0,0,3.379776,0,0,0
2003/7/5 2:00,0,0,0,0,0,0,0,0
2003/7/5 2:15,0.023022997,0,0,0,3.379776,0,0,0
2003/7/5 2:30,0.023022997,0,0,0,3.379776,0,0,0
2003/7/5 2:45,0,0,0,0,0,0,0,0
2003/7/5 3:00,0.023184033,0,0,0,3.403416,0,0,0
2003/7/5 3:15,0.023022997,0,0,0,3.379776,0,0,0
2003/7/5 3:30,1.61E-04,0,0,0,0.02364,0,0,0
2003/7/5 3:45,0.023022997,0,0,0,3.379776,0,0,0
2003/7/5 4:00,1.61E-04,0,0,0,0.02364,0,0,0
2003/7/5 4:15,0.023022997,0,0,0,3.379776,0,0,0
2003/7/5 4:30,0.023022997,0,0,0,3.379776,0,0,0
2003/7/5 4:45,0,0,0,0,0,0,0,0
2003/7/5 5:00,0.023184033,0,0,0,3.403416,0,0,0
2003/7/5 5:15,0.023344986,0,0,0,3.427044,0,0,0
2003/7/5 5:30,0,0,0,0,0,0,0,0
2003/7/5 5:45,0.023022997,0,0,0,3.379776,0,0,0
2003/7/5 6:00,0.01175297,0,0,0,1.725336,0,0,0
2003/7/5 6:15,0.011108992,0,0.012557984,0,1.6308,0,1.843512,0
2003/7/5 6:30,0.023184033,0,0,0,3.403416,0,0,0
2003/7/5 6:45,0,0,0,0,0,0,0,0
2003/7/5 7:00,0.023022997,0,0,0,3.379776,0,0,0
2003/7/5 7:15,0.023022997,0,0,0,3.379776,0,0,0
2003/7/5 7:30,0,0,0,0,0,0,0,0
2003/7/5 7:45,0.023022997,0,0,0,3.379776,0,0,0
2003/7/5 8:00,0.018514986,0,0.00966,0,2.718,0,1.418088,0
2003/7/5 8:15,0.004668965,0,0,0,0.685404,0,0,0
2003/7/5 8:30,0.022861962,0,0,0,3.356136,0,0,0
2003/7/5 8:45,0,0,0,0,0,0,0,0
2003/7/5 9:00,0.023184033,0,0.080339019,0,3.403416,0,11.793768,0
2003/7/5 9:15,0.023022997,0,0.051841962,0,3.379776,0,7.6104,0
2003/7/5 9:30,0,0,0.054578992,0,0,0,8.012196,0
2003/7/5 9:45,0.023022997,0,0.206562997,0,3.379776,0,30.323448,0
2003/7/5 10:00,0.003219973,0,0.20559703,0,0.472692,0,30.181644,0
2003/7/5 10:15,0.019641989,0,0.006600981,0,2.883444,0,0.969024,0
2003/7/5 10:30,0.023183951,0,0.160838992,0,3.403404,0,23.611164,0
2003/7/5 10:45,0,0,0.000321989,0,0,0,0.047268,0
2003/7/5 11:00,0.023022997,0,0,0,3.379776,0,0,0
2003/7/5 11:15,0.01449,0,0,0,2.127132,0,0,0
2003/7/5 11:30,0.00209297,0,0,0,0.307248,0,0,0
2003/7/5 11:45,0,0,0.067136975,0,0,0,9.855708,0
2003/7/5 12:00,0,0,0,0,0,0,0,0
2003/7/5 12:15,0,0,0,0,0,0,0,0
2003/7/5 12:30,0,0,0.080661008,0,0,0,11.841036,0
2003/7/5 12:45,0,0,0,0,0,0,0,0
2003/7/5 13:00,0,0,0.039927956,0,0,0,5.861424,0
2003/7/5 13:15,0,0,0,0,0,0,0,0
2003/7/5 13:30,0,0,0,0,0,0,0,0
2003/7/5 13:45,0,0,0,0,0,0,0,0
2003/7/5 14:00,0,0,0,0,0,0,0,0
2003/7/5 14:15,0,0,0,0,0,0,0,0
2003/7/5 14:30,0,0,0,0,0,0,0,0
2003/7/5 14:45,0,0,0,0,0,0,0,0
2003/7/5 15:00,0,0,0,0,0,0,0,0
2003/7/5 15:15,0,0,0,0,0,0,0,0
2003/7/5 15:30,0,0,0,0,0,0,0,0
2003/7/5 15:45,0,0,0,0,0,0,0,0
2003/7/5 16:00,0,0,0,0,0,0,0,0
2003/7/5 16:15,0,0,0,0,0,0,0,0
2003/7/5 16:30,0,0,0,0,0,0,0,0
2003/7/5 16:45,0,0,0,0,0,0,0,0
2003/7/5 17:00,0,0,0,0,0,0,0,0
2003/7/5 17:15,0,0,0,0,0,0,0,0
2003/7/5 17:30,0,0,0,0,0,0,0,0
2003/7/5 17:45,0,0,0,0,0,0,0,0
2003/7/5 18:00,0,0,0,0,0,0,0,0
2003/7/5 18:15,0,0,0,0,0,0,0,0
2003/7/5 18:30,0,0,0,0,0,0,0,0
2003/7/5 18:45,0,0,0,0,0,0,0,0
2003/7/5 19:00,0,0,0,0,0,0,0,0
2003/7/5 19:15,0,0,0,0,0,0,0,0
2003/7/5 19:30,0,0,0,0,0,0,0,0
2003/7/5 19:45,0,0,0,0,0,0,0,0
2003/7/5 20:00,0,0,0,0,0,0,0,0
2003/7/5 20:15,0,0,0,0,0,0,0,0
2003/7/5 20:30,0,0,0,0,0,0,0,0
2003/7/5 20:45,0,0,0,0,0,0,0,0
2003/7/5 21:00,0,0,0.013041008,0,0,0,1.91442,0
2003/7/5 21:15,0,0,0.006118038,0,0,0,0.898128,0
2003/7/5 21:30,0,0,0,0,0,0,0,0
2003/7/5 21:45,0,0,0,0,0,0,0,0
2003/7/5 22:00,0,0,0.259049019,0,0,0,38.028396,0
2003/7/5 22:15,0,0,0.209944005,0,0,0,30.81978,0
2003/7/5 22:30,0,0,0,0,0,0,0,0
2003/7/5 22:45,0,0,0,0,0,0,0,0
2003/7/5 23:00,0,0,0,0,0,0,0,0
2003/7/5 23:15,0,0,0,0,0,0,0,0
2003/7/5 23:30,0,0,0,0,0,0,0,0
2003/7/5 23:45,0,0,0,0,0,0,0,0
2003/7/6 0:00,0,0,0.162609973,0,0,0,23.871144,0
2003/7/6 0:15,0,0,0,0,0,0,0,0
2003/7/6 0:30,0,0,0,0,0,0,0,0
2003/7/6 0:45,0,0,0,0,0,0,0,0
2003/7/6 1:00,0,0,0,0,0,0,0,0
2003/7/6 1:15,0,0,0,0,0,0,0,0
2003/7/6 1:30,0,0,0,0,0,0,0,0
2003/7/6 1:45,0,0,0,0,0,0,0,0
2003/7/6 2:00,0,0,0,0,0,0,0,0
2003/7/6 2:15,0,0,0,0,0,0,0,0
2003/7/6 2:30,0,0,0,0,0,0,0,0
2003/7/6 2:45,0,0,0,0,0,0,0,0
2003/7/6 3:00,0,0,0,0,0,0,0,0
2003/7/6 3:15,0,0,0,0,0,0,0,0
2003/7/6 3:30,0,0,0,0,0,0,0,0
2003/7/6 3:45,0,0,0,0,0,0,0,0
2003/7/6 4:00,0,0,0,0,0,0,0,0
2003/7/6 4:15,0,0,0,0,0,0,0,0
2003/7/6 4:30,0,0,0,0,0,0,0,0
2003/7/6 4:45,0,0,0,0,0,0,0,0
2003/7/6 5:00,0,0,0,0,0,0,0,0
2003/7/6 5:15,0,0,0,0,0,0,0,0
2003/7/6 5:30,0,0,0,0,0,0,0,0
2003/7/6 5:45,0,0,0,0,0,0,0,0
2003/7/6 6:00,0,0,0,0,0,0,0,0
2003/7/6 6:15,0,0,0,0,0,0,0,0
2003/7/6 6:30,0,0,0,0,0,0,0,0
2003/7/6 6:45,0,0,0.055062016,0,0,0,8.083104,0
2003/7/6 7:00,0,0,0,0,0,0,0,0
2003/7/6 7:15,0,0,0,0,0,0,0,0
2003/7/6 7:30,0,0,0.005473978,0,0,0,0.80358,0
2003/7/6 7:45,0,0,0,0,0,0,0,0
2003/7/6 8:00,0,0,0,0,0,0,0,0
2003/7/6 8:15,0,0,0,0,0,0,0,0
2003/7/6 8:30,0,0,0,0,0,0,0,0
2003/7/6 8:45,0,0,0,0,0,0,0,0
2003/7/6 9:00,0,0,0,0,0,0,0,0
2003/7/6 9:15,0,0,0,0,0,0,0,0
2003/7/6 9:30,0,0,0,0,0,0,0,0
2003/7/6 9:45,0,0,0.01932,0,0,0,2.836176,0
2003/7/6 10:00,0,0,0.182734986,0,0,0,26.825496,0
2003/7/6 10:15,0,0,0.046529019,0,0,0,6.83046,0
2003/7/6 10:30,0,0,0.019641989,0,0,0,2.883444,0
2003/7/6 10:45,0,0,0,0,0,0,0,0
2003/7/6 11:00,0,0,0,0,0,0,0,0
2003/7/6 11:15,0,0,0,0,0,0,0,0
2003/7/6 11:30,0,0,0,0,0,0,0,0
2003/7/6 11:45,0,0,0.004991035,0,0,0,0.732684,0
2003/7/6 12:00,0,0,0,0,0,0,0,0
2003/7/6 12:15,0,0,0,0,0,0,0,0
2003/7/6 12:30,0,0,0,0,0,0,0,0
2003/7/6 12:45,0,0,0,0,0,0,0,0
2003/7/6 13:00,0,0,0,0,0,0,0,0
2003/7/6 13:15,0,0,0,0,0,0,0,0
2003/7/6 13:30,0,0,0,0,0,0,0,0
2003/7/6 13:45,0,0,0.015617003,0,0,0,2.292576,0
2003/7/6 14:00,0,0,0,0,0,0,0,0
2003/7/6 14:15,0,0,0,0,0,0,0,0
2003/7/6 14:30,0,0,0,0,0,0,0,0
2003/7/6 14:45,0,0,0,0,0,0,0,0
2003/7/6 15:00,0,0,0,0,0,0,0,0
2003/7/6 15:15,0,0,0,0,0,0,0,0
2003/7/6 15:30,0,0,0,0,0,0,0,0
2003/7/6 15:45,0,0,0,0,0,0,0,0
2003/7/6 16:00,0,0,0,0,0,0,0,0
2003/7/6 16:15,0,0,0,0,0,0,0,0
2003/7/6 16:30,0,0,0,0,0,0,0,0
2003/7/6 16:45,0,0,0,0,0,0,0,0
2003/7/6 17:00,0,0,0,0,0,0,0,0
2003/7/6 17:15,0,0,0,0,0,0,0,0
2003/7/6 17:30,0,0,0.016422016,0,0,0,2.410752,0
2003/7/6 17:45,0,0,0,0,0,0,0,0
2003/7/6 18:00,0,0,0,0,0,0,0,0
2003/7/6 18:15,0,0,0,0,0,0,0,0
2003/7/6 18:30,0,0,0,0,0,0,0,0
2003/7/6 18:45,0,0,0,0,0,0,0,0
2003/7/6 19:00,0,0,0,0,0,0,0,0
2003/7/6 19:15,0,0,0,0,0,0,0,0
2003/7/6 19:30,0,0,0,0,0,0,0,0
2003/7/6 19:45,0,0,0.004668965,0,0,0,0.685404,0
2003/7/6 20:00,0,0,0.023989046,0,0,0,3.521592,0
2003/7/6 20:15,0,0,0,0,0,0,0,0
2003/7/6 20:30,0,0,0,0,0,0,0,0
2003/7/6 20:45,0,0,0,0,0,0,0,0
2003/7/6 21:00,0,0,0.308315068,0,0,0,45.260652,0
2003/7/6 21:15,0,0,0.109962997,0,0,0,16.142568,0
2003/7/6 21:30,0,0,0,0,0,0,0,0
2003/7/6 21:45,0,0,0.020930027,0,0,0,3.072528,0
2003/7/6 22:00,0,0,0,0,0,0,0,0
2003/7/6 22:15,0,0,0,0,0,0,0,0
2003/7/6 22:30,0,0,0.237635967,0,0,0,34.88496,0
2003/7/6 22:45,0,0,0,0,0,0,0,0
2003/7/6 23:00,0,0,0,0,0,0,0,0
2003/7/6 23:15,0,0,0,0,0,0,0,0
2003/7/6 23:30,0,0,0,0,0,0,0,0
2003/7/6 23:45,0,0,0,0,0,0,0,0
2003/7/7 0:00,0,0,0,0,0,0,0,0
2003/7/7 0:15,0,0,0,0,0,0,0,0
2003/7/7 0:30,0,0,0,0,0,0,0,0
2003/7/7 0:45,0,0,0,0,0,0,0,0
2003/7/7 1:00,0,0,0,0,0,0,0,0
2003/7/7 1:15,0,0,0,0,0,0,0,0
2003/7/7 1:30,0,0,0,0,0,0,0,0
2003/7/7 1:45,0,0,0,0,0,0,0,0
2003/7/7 2:00,0,0,0,0,0,0,0,0
2003/7/7 2:15,0,0,0,0,0,0,0,0
2003/7/7 2:30,0,0,0,0,0,0,0,0
2003/7/7 2:45,0,0,0,0,0,0,0,0
2003/7/7 3:00,0,0,0,0,0,0,0,0
2003/7/7 3:15,0,0,0,0,0,0,0,0
2003/7/7 3:30,0,0,0,0,0,0,0,0
2003/7/7 3:45,0,0,0,0,0,0,0,0
2003/7/7 4:00,0,0,0,0,0,0,0,0
2003/7/7 4:15,0,0,0,0,0,0,0,0
2003/7/7 4:30,0,0,0,0,0,0,0,0
2003/7/7 4:45,0,0,0,0,0,0,0,0
2003/7/7 5:00,0,0,0,0,0,0,0,0
2003/7/7 5:15,0,0,0,0,0,0,0,0
2003/7/7 5:30,0,0,0,0,0,0,0,0
2003/7/7 5:45,0,0,0,0,0,0,0,0
2003/7/7 6:00,0,0,0,0,0,0,0,0
2003/7/7 6:15,0,0,0,0,0,0,0,0
2003/7/7 6:30,0,0,0,0,0,0,0,0
2003/7/7 6:45,0,0,0,0,0,0,0,0
2003/7/7 7:00,0,0,0,0,0,0,0,0
2003/7/7 7:15,0,0,0.274666022,0,0,0,40.320972,0
2003/7/7 7:30,0,0,0.116241907,0,0,0,17.064312,0
2003/7/7 7:45,0,0,0,0,0,0,0,0
2003/7/7 8:00,0,0,0.005635014,0,0,0,0.82722,0
2003/7/7 8:15,0,0,0,0,0,0,0,0
2003/7/7 8:30,0,0,0.061019019,0,0,0,8.957592,0
2003/7/7 8:45,0,0,0,0,0,0,0,0
2003/7/7 9:00,0,0,0,0,0,0,0,0
2003/7/7 9:15,0,0,0,0,0,0,0,0
2003/7/7 9:30,0,0,0,0,0,0,0,0
2003/7/7 9:45,0,0,0,0,0,0,0,0
2003/7/7 10:00,0,0,0,0,0,0,0,0
2003/7/7 10:15,0,0,0,0,0,0,0,0
2003/7/7 10:30,0,0,0,0,0,0,0,0
2003/7/7 10:45,0,0,0,0,0,0,0,0
2003/7/7 11:00,0,0,0,0,0,0,0,0
2003/7/7 11:15,0,0,0,0,0,0,0,0
2003/7/7 11:30,0.135723025,0,0,0,19.92414,0,0,0
2003/7/7 11:45,0.096439046,0,0,0,14.157252,0,0,0
2003/7/7 12:00,0.093058038,0,0,0,13.66092,0,0,0
2003/7/7 12:15,0.092575014,0,0,0,13.590012,0,0,0
2003/7/7 12:30,0.073737956,0,0,0,10.824732,0,0,0
2003/7/7 12:45,0.079050981,0,0,0,11.604684,0,0,0
2003/7/7 13:00,0.090964986,0,0,0,13.35366,0,0,0
2003/7/7 13:15,0.061824033,0,0,0,9.075768,0,0,0
2003/7/7 13:30,0.020447003,0,0,0,3.00162,0,0,0
2003/7/7 13:45,0.023184033,0,0.010303978,0,3.403416,0,1.512624,0
2003/7/7 14:00,0,0,0.017709973,0,0,0,2.599824,0
2003/7/7 14:15,0.023183951,0,0,0,3.403404,0,0,0
2003/7/7 14:30,0.023184033,0,0,0,3.403416,0,0,0
2003/7/7 14:45,0,0,0,0,0,0,0,0
2003/7/7 15:00,0.023344986,0,0,0,3.427044,0,0,0
2003/7/7 15:15,0.015455967,0,0,0,2.268936,0,0,0
2003/7/7 15:30,0.007889019,0,0,0,1.158108,0,0,0
2003/7/7 15:45,0.023022997,0,0,0,3.379776,0,0,0
2003/7/7 16:00,0.015938992,0,0,0,2.339844,0,0,0
2003/7/7 16:15,0.039605967,0,0.031234005,0,5.814156,0,4.585152,0
2003/7/7 16:30,0.017709973,0,0.032521962,0,2.599824,0,4.774224,0